User: anonymous   Login
Location: Unspecified
(0.0000°N, 0.0000°E)
Time: 13:29:17
(UTC+02:00)
Language:

H-2A R/B - Orbit

View from above orbital plane
View from above orbital plane
View from above satellite
View from above satellite

Ground track
Ground track

The orbit data is extracted from the following two-line orbital elements,

1 26899U 01038B   18172.50247047 +.00000492 +00000-0 +15872-3 0  9995
2 26899 027.9687 274.9981 7110940 073.0437 348.8296 02.48952586145662
Epoch (UTC): 21 June 2018 12:03:33
Eccentricity: 0.7110940
inclination: 27.9687°
perigee height: 265 km
apogee height: 32970 km
right ascension of ascending node: 274.9981°
argument of perigee: 73.0437°
revolutions per day: 2.48952586
mean anomaly at epoch: 348.8296°
orbit number at epoch: 14566

The dashed part of the orbit path shows where the satellite is in the earth's shadow,  

DLR